KE6LRO Weather Reports


time (UTC)temp
F
wind
direction
speed
knots
gust
knots
rain 1hr
in
rain 24hr
in
rain mn
in
humidity
%
barometer
mb
20260505041631 54 246 6.1 7.0 0.00 0.00 0.00 48 1016.9
20260505041128 55 297 2.6 7.8 0.00 0.00 0.00 48 1016.9
20260505040625 54 172 2.6 9.6 0.00 0.00 0.00 46 1017.1
20260505040122 54 215 2.6 5.2 0.00 0.00 0.00 49 1016.7
20260505035618 53 292 1.7 2.6 0.00 0.00 0.00 50 1016.8
20260505035115 55 321 0.9 1.7 0.00 0.00 0.00 48 1016.5
20260505034612 56 281 2.6 6.1 0.00 0.00 0.00 47 1016.6
20260505034108 55 336 0.0 5.2 0.00 0.00 0.00 49 1016.5
20260505033605 55 327 1.7 1.7 0.00 0.00 0.00 48 1016.4
20260505033104 56 298 0.9 1.7 0.00 0.00 0.00 45 1016.5
20260505032601 56 336 1.7 1.7 0.00 0.00 0.00 44 1016.3
20260505032057 56 353 0.9 1.7 0.00 0.00 0.00 45 1016.4
20260505031555 57 261 1.7 7.0 0.00 0.00 0.00 45 1016.1
20260505031051 57 52 0.9 4.3 0.00 0.00 0.00 44 1016.2
20260505030548 57 330 0.0 5.2 0.00 0.00 0.00 45 1016.2
20260505030044 58 333 3.5 4.3 0.00 0.00 0.00 44 1016.1
20260505025540 58 298 1.7 5.2 0.00 0.00 0.00 42 1016.1
20260505025039 58 314 0.9 2.6 0.00 0.00 0.00 43 1015.8
20260505024535 59 309 1.7 2.6 0.00 0.00 0.00 44 1016.1
20260505024032 59 327 0.0 2.6 0.00 0.00 0.00 41 1015.9
20260505023529 59 338 2.6 4.3 0.00 0.00 0.00 41 1015.7
20260505023027 60 332 0.0 1.7 0.00 0.00 0.00 42 1015.6
20260505022525 60 356 2.6 5.2 0.00 0.00 0.00 41 1015.5
20260505022022 60 330 2.6 4.3 0.00 0.00 0.00 42 1015.4
20260505021518 60 350 0.9 4.3 0.00 0.00 0.00 43 1015.5
20260505021015 60 314 0.9 2.6 0.00 0.00 0.00 42 1015.4
20260505020514 60 276 2.6 5.2 0.00 0.00 0.00 43 1015.4
20260505020012 61 327 0.9 2.6 0.00 0.00 0.00 43 1015.2
20260505015509 61 0 0.9 2.6 0.00 0.00 0.00 40 1015.2
20260505015006 61 301 0.9 1.7 0.00 0.00 0.00 42 1015.1
20260505014503 62 337 0.0 4.3 0.00 0.00 0.00 43 1014.8
20260505014000 63 137 1.7 4.3 0.00 0.00 0.00 40 1015.1
20260505013457 64 310 2.6 2.6 0.00 0.00 0.00 39 1014.9
20260505012954 63 332 0.0 5.2 0.00 0.00 0.00 40 1014.8
20260505012452 63 325 1.7 2.6 0.00 0.00 0.00 40 1014.9
20260505011949 64 281 2.6 7.8 0.00 0.00 0.00 39 1014.9
20260505011445 63 309 0.9 1.7 0.00 0.00 0.00 39 1014.9
20260505010942 63 219 5.2 7.8 0.00 0.00 0.00 39 1014.7
20260505010437 64 359 1.7 4.3 0.00 0.00 0.00 39 1014.8
20260505005934 64 351 2.6 6.1 0.00 0.00 0.00 39 1014.8
20260505005431 64 259 2.6 2.6 0.00 0.00 0.00 40 1014.7
20260505004928 64 330 0.0 0.9 0.00 0.00 0.00 39 1014.7
20260505004425 65 315 1.7 4.3 0.00 0.00 0.00 41 1014.7
20260505003921 63 288 1.7 5.2 0.00 0.00 0.00 41 1014.7
20260505003419 64 359 0.9 0.9 0.00 0.00 0.00 40 1014.7
20260505002915 64 334 0.9 1.7 0.00 0.00 0.00 38 1014.8
20260505002411 65 215 3.5 5.2 0.00 0.00 0.00 39 1014.7
20260505001910 65 212 3.5 5.2 0.00 0.00 0.00 38 1014.7
20260505001407 66 276 3.5 5.2 0.00 0.00 0.00 39 1014.6
20260505000904 66 165 3.5 4.3 0.00 0.00 0.00 36 1014.8
20260505000402 65 321 0.0 2.6 0.00 0.00 0.00 37 1014.6
20260504235858 65 42 2.6 6.1 0.00 0.00 0.00 39 1014.6
20260504235355 66 68 0.9 2.6 0.00 0.00 0.00 39 1014.4
20260504234851 67 318 1.7 2.6 0.00 0.00 0.00 36 1014.5
20260504234349 66 346 0.0 2.6 0.00 0.00 0.00 36 1014.4
20260504233846 67 55 2.6 4.3 0.00 0.00 0.00 37 1014.4
20260504233341 68 10 0.9 1.7 0.00 0.00 0.00 36 1014.1
20260504232839 68 337 0.0 4.3 0.00 0.00 0.00 40 1014.1
20260504232336 68 266 3.5 4.3 0.00 0.00 0.00 37 1014.3
20260504231832 67 325 0.9 1.7 0.00 0.00 0.00 37 1014.3
20260504231329 67 354 4.3 6.1 0.00 0.00 0.00 36 1014.4
20260504230825 67 331 0.0 2.6 0.00 0.00 0.00 35 1014.2
20260504230323 67 335 5.2 7.0 0.00 0.00 0.00 36 1014.2
20260504225822 67 346 1.7 2.6 0.00 0.00 0.00 36 1014.3
20260504225317 66 326 6.1 13.9 0.00 0.00 0.00 36 1014.1
20260504224815 67 31 0.9 5.2 0.00 0.00 0.00 36 1014.1
20260504224312 67 274 2.6 7.0 0.00 0.00 0.00 37 1014.3
20260504223809 68 275 2.6 7.0 0.00 0.00 0.00 36 1014.1
20260504223304 67 320 0.9 4.3 0.00 0.00 0.00 36 1014.3
20260504222801 68 284 1.7 4.3 0.00 0.00 0.00 35 1014.2
20260504222258 68 348 1.7 2.6 0.00 0.00 0.00 35 1014.2
20260504221756 68 332 1.7 2.6 0.00 0.00 0.00 35 1014.3
20260504221253 67 3 0.9 0.9 0.00 0.00 0.00 35 1014.2
20260504220749 68 8 4.3 7.0 0.00 0.00 0.00 35 1014.3
20260504220246 68 347 4.3 6.1 0.00 0.00 0.00 34 1014.2
20260504215744 68 336 2.6 7.8 0.00 0.00 0.00 35 1014.2
20260504215240 68 340 0.9 8.7 0.00 0.00 0.00 36 1014.2
20260504214736 68 350 0.9 6.1 0.00 0.00 0.00 36 1014.4
20260504214232 70 348 6.1 7.8 0.00 0.00 0.00 34 1014.2
20260504213729 69 341 1.7 6.1 0.00 0.00 0.00 34 1014.5
20260504213226 68 312 0.9 6.1 0.00 0.00 0.00 36 1014.6
20260504212723 68 36 1.7 4.3 0.00 0.00 0.00 35 1014.6
20260504212220 68 338 4.3 7.0 0.00 0.00 0.00 35 1014.6
20260504211717 69 335 5.2 9.6 0.00 0.00 0.00 33 1014.6
20260504211213 69 323 2.6 5.2 0.00 0.00 0.00 35 1014.5
20260504210711 68 13 1.7 6.1 0.00 0.00 0.00 34 1014.6
20260504210207 68 316 4.3 7.0 0.00 0.00 0.00 34 1014.7
20260504205704 68 296 2.6 7.0 0.00 0.00 0.00 35 1014.6
20260504205201 68 310 0.9 7.0 0.00 0.00 0.00 35 1014.9
20260504204700 67 326 1.7 6.1 0.00 0.00 0.00 36 1014.7
20260504204159 68 331 0.9 6.1 0.00 0.00 0.00 34 1014.8
20260504203657 68 272 4.3 7.8 0.00 0.00 0.00 34 1014.8
20260504203154 68 337 0.0 0.9 0.00 0.00 0.00 34 1014.7
20260504202654 68 23 1.7 7.0 0.00 0.00 0.00 35 1014.9
20260504202152 68 330 1.7 2.6 0.00 0.00 0.00 38 1014.9
20260504201649 67 304 1.7 7.0 0.00 0.00 0.00 38 1014.9
20260504201146 67 33 3.5 6.1 0.00 0.00 0.00 35 1014.6
20260504200643 66 337 3.5 6.1 0.00 0.00 0.00 37 1014.9
20260504200140 67 319 4.3 7.0 0.00 0.00 0.00 36 1014.9
20260504195636 67 315 7.0 11.3 0.00 0.00 0.00 34 1014.8
20260504195132 66 250 4.3 8.7 0.00 0.00 0.00 36 1015.1
20260504194629 66 331 4.3 6.1 0.00 0.00 0.00 35 1014.9
20260504194125 67 350 5.2 7.0 0.00 0.00 0.00 35 1015.2
20260504193621 66 317 3.5 5.2 0.00 0.00 0.00 36 1015.1
20260504193120 66 1 2.6 2.6 0.00 0.00 0.00 36 1015.2
20260504192618 65 10 4.3 7.0 0.00 0.00 0.00 37 1015.2
20260504192115 64 0 0.9 6.1 0.00 0.00 0.00 38 1015.3
20260504191614 65 321 0.9 6.1 0.00 0.00 0.00 40 1015.3
20260504191109 66 345 0.9 6.1 0.00 0.00 0.00 36 1015.5
20260504190606 66 283 0.9 7.0 0.00 0.00 0.00 38 1015.5
20260504185559 65 330 0.0 6.1 0.00 0.00 0.00 38 1015.6
20260504185055 65 341 2.6 6.1 0.00 0.00 0.00 37 1015.8
20260504184551 65 307 7.0 7.8 0.00 0.00 0.00 35 1015.6
20260504184046 64 326 1.7 7.0 0.00 0.00 0.00 37 1015.7
20260504183544 64 346 1.7 5.2 0.00 0.00 0.00 37 1015.6
20260504183042 64 304 4.3 7.0 0.00 0.00 0.00 36 1015.8
20260504182538 63 327 0.9 1.7 0.00 0.00 0.00 36 1015.8
20260504182036 64 345 0.9 5.2 0.00 0.00 0.00 36 1016.1
20260504181533 63 337 0.9 7.0 0.00 0.00 0.00 37 1015.8
20260504181031 64 12 2.6 4.3 0.00 0.00 0.00 36 1015.8
20260504180530 64 346 0.0 1.7 0.00 0.00 0.00 38 1015.9
20260504180028 64 25 1.7 2.6 0.00 0.00 0.00 38 1016.2
20260504175525 64 32 0.9 1.7 0.00 0.00 0.00 37 1015.8
20260504175022 63 328 1.7 4.3 0.00 0.00 0.00 36 1016.1
20260504174520 62 14 0.9 5.2 0.00 0.00 0.00 38 1016.2
20260504174016 62 347 0.0 1.7 0.00 0.00 0.00 40 1016.1
20260504173513 62 337 0.9 4.3 0.00 0.00 0.00 37 1016.2
20260504173011 62 21 0.9 2.6 0.00 0.00 0.00 37 1016.2
20260504172507 63 6 2.6 2.6 0.00 0.00 0.00 37 1016.1
20260504172003 62 344 0.0 5.2 0.00 0.00 0.00 40 1016.2
20260504171500 63 328 1.7 2.6 0.00 0.00 0.00 38 1016.3
20260504170957 63 353 0.0 2.6 0.00 0.00 0.00 40 1016.1
20260504170453 62 316 0.9 4.3 0.00 0.00 0.00 38 1016.2
20260504160413 59 316 0.9 1.7 0.00 0.00 0.00 43 1016.7
20260504150837 51 342 0.0 0.0 0.00 0.00 0.00 71 1016.7
20260504150334 48 343 0.0 0.0 0.00 0.00 0.00 75 1016.9
20260504141304 37 342 0.0 0.0 0.00 0.00 0.00 99 1016.7
20260504140800 35 340 0.0 0.0 0.00 0.00 0.00 99 1016.7
20260504140256 35 326 0.0 0.0 0.00 0.00 0.00 99 1017.1
20260504130725 33 310 0.9 0.9 0.00 0.00 0.00 99 1016.3
20260504130220 33 343 0.0 0.0 0.00 0.00 0.00 99 1016.3
20260504120145 33 341 0.0 0.0 0.00 0.00 0.00 99 1015.7
20260504110612 33 336 0.0 0.0 0.00 0.00 0.00 99 1015.3
20260504110108 34 336 0.0 0.0 0.00 0.00 0.00 98 1015.1
20260504100534 35 336 0.0 0.0 0.00 0.00 0.00 97 1015.1
20260504081927 38 335 0.0 0.0 0.00 0.00 0.00 95 1015.5
20260504081424 38 336 0.0 0.0 0.00 0.00 0.00 95 1015.3
20260504080920 38 335 0.0 0.0 0.00 0.00 0.00 95 1015.5
20260504080417 38 336 0.0 0.0 0.00 0.00 0.00 94 1015.4
20260504070344 40 338 0.0 0.0 0.00 0.00 0.00 92 1015.3
20260504050732 45 329 0.9 1.7 0.00 0.00 0.00 85 1015.1
20260504050229 45 335 0.0 0.0 0.00 0.00 0.00 85 1015.3
20260504045726 46 337 0.0 0.0 0.00 0.00 0.00 82 1015.4
20260504045221 46 328 0.0 0.0 0.00 0.00 0.00 81 1015.2
20260504044719 46 331 0.0 0.0 0.00 0.00 0.00 81 1015.1
20260504044216 46 328 0.0 0.0 0.00 0.00 0.00 82 1015.2
20260504043714 47 331 0.0 0.0 0.00 0.00 0.00 83 1015.2
20260504043210 47 319 0.0 0.0 0.00 0.00 0.00 81 1015.1
20260504042708 47 341 0.0 0.0 0.00 0.00 0.00 79 1015.3